Stations météo

réclame
Mon MeteoGroup
Kvarn, Suède (2561): Température de l'air & dewpoint: 13.11.2017 20:00:00 - 19.11.2017 20:00:00 (CET)Kvarn, Suède (2561): Vitesse du vent & gusts: 13.11.2017 20:00:00 - 19.11.2017 20:00:00 (CET)Kvarn, Suède (2561): Direction du vent: 13.11.2017 20:00:00 - 19.11.2017 20:00:00 (CET)Kvarn, Suède (2561): reduced air pressure: 13.11.2017 20:00:00 - 19.11.2017 20:00:00 (CET)Kvarn, Suède (2561): visibility: 13.11.2017 20:00:00 - 19.11.2017 20:00:00 (CET)Kvarn, Suède (2561): Quantités de précipitations: 13.11.2017 20:00:00 - 19.11.2017 20:00:00 (CET)
Date & Time tt [°C] td [°C] ff [km/h] ff [knt] fx [km/h] fx [knt] dd ppp [hPa] vv [km] rr [mm]
19.11.2017 20:00:00 -2,2 -3,6 7 4 14 8 NNW 1004,2 50 0,0
19.11.2017 19:00:00 -2,3 -3,4 7 4 14 8 NNW 1003,6 50 0,0
19.11.2017 18:00:00 -2,2 -3,5 11 6 18 10 NNW 1003,2 50 0,0
19.11.2017 17:00:00 -2,2 -2,8 7 4 25 14 N 1002,8 50 0,0
19.11.2017 16:00:00 -1,8 -2,5 14 8 25 14 N 1002,2 50 0,0
19.11.2017 15:00:00 -1,0 -1,1 7 4 29 16 N 1001,1 9 0,1
19.11.2017 14:00:00 -0,4 -0,8 7 4 25 14 N 1000,2 28 0,0
19.11.2017 13:00:00 -0,2 -0,5 11 6 25 14 N 999,6 45 0,0
19.11.2017 12:00:00 -0,1 -0,1 7 4 25 14 N 998,8 35 0,0
19.11.2017 11:00:00 0,1 0,1 7 4 25 14 NNE 997,9 5 0,1
19.11.2017 10:00:00 0,2 0,2 11 6 25 14 NNE 997,0 17 0,0
19.11.2017 09:00:00 0,1 0,1 7 4 22 12 NNE 996,0 4,8 0,2
19.11.2017 08:00:00 0,2 0,2 4 2 18 10 NNE 995,2 1,9 0,2
19.11.2017 07:00:00 0,2 0,2 7 4 14 8 NE 994,1 4,2 0,1
19.11.2017 06:00:00 0,2 0,2 4 2 11 6 NE 993,6 6 0,1
19.11.2017 05:00:00 0,2 0,2 4 2 7 4 NE 993,1 5 0,5
19.11.2017 04:00:00 -0,2 -0,2 0 0 7 4 N 992,9 9 0,0
19.11.2017 03:00:00 -1,0 -1,0 0 0 7 4 N 992,8 15 0,0
19.11.2017 02:00:00 -1,9 -1,9 0 0 4 2 N 993,0 25 0,0
19.11.2017 01:00:00 -1,2 -1,2 0 0 4 2 N 993,1 2,6 0,0
19.11.2017 00:00:00 -1,1 -1,1 0 0 4 2 N 993,6 17 0,0
18.11.2017 23:00:00 -1,5 -1,5 0 0 7 4 N 993,6 9 0,0
18.11.2017 22:00:00 -0,8 -0,8 4 2 7 4 SSE 993,9 13 0,0
18.11.2017 21:00:00 -0,6 -0,6 4 2 7 4 SSE 994,1 16 0,0
18.11.2017 20:00:00 -1,3 -1,3 0 0 4 2 N 994,3 4,2 0,0
18.11.2017 19:00:00 -0,1 -0,1 0 0 4 2 N 994,7 0,5 0,0
18.11.2017 18:00:00 1,0 1,0 0 0 7 4 N 994,6 11 0,0
18.11.2017 17:00:00 1,3 1,3 4 2 11 6 SSW 994,9 19 0,0
18.11.2017 16:00:00 1,4 1,3 4 2 14 8 S 995,4 11 0,0
18.11.2017 15:00:00 3,6 3,0 7 4 14 8 SW 995,3 50 0,0
18.11.2017 14:00:00 4,1 3,7 4 2 18 10 SW 995,5 45 0,0
18.11.2017 13:00:00 4,1 3,8 4 2 18 10 SW 996,0 45 0,0
18.11.2017 12:00:00 3,8 3,7 4 2 18 10 SW 996,5 50 0,0
18.11.2017 11:00:00 4,2 3,9 7 4 25 14 WSW 996,7 45 0,0
18.11.2017 10:00:00 3,7 3,7 4 2 25 14 S 996,9 40 2,0
18.11.2017 09:00:00 4,6 4,6 11 6 25 14 SSW 997,2 7 2,0
18.11.2017 08:00:00 5,0 4,6 7 4 25 14 SSW 997,9 29 0,3
18.11.2017 07:00:00 4,7 4,4 11 6 22 12 SSW 998,6 45 0,0
18.11.2017 06:00:00 4,6 4,3 11 6 25 14 SW 999,5 45 0,0
18.11.2017 05:00:00 4,5 4,5 11 6 22 12 SSW 1000,4 40 0,2
18.11.2017 04:00:00 4,4 4,1 11 6 25 14 SSW 1002,0 13 1,0
18.11.2017 03:00:00 4,9 4,3 11 6 25 14 SW 1003,0 50 0,0
18.11.2017 02:00:00 4,9 4,5 11 6 40 21 SW 1003,9 30 1,0
18.11.2017 01:00:00 6,5 4,2 11 6 32 18 SW 1004,7 45 0,1
18.11.2017 00:00:00 6,6 3,9 14 8 32 18 SW 1005,5 40 0,0
17.11.2017 23:00:00 6,4 4,2 14 8 32 18 SSW 1006,2 35 0,0
17.11.2017 22:00:00 6,4 3,7 14 8 32 18 WSW 1006,9 45 0,0
17.11.2017 21:00:00 6,7 3,8 11 6 36 19 SW 1007,3 30 0,0
17.11.2017 20:00:00 6,8 3,9 14 8 36 19 WSW 1007,1 26 0,0
17.11.2017 19:00:00 7,1 3,9 14 8 40 21 SW 1007,7 26 0,0
17.11.2017 18:00:00 7,3 4,1 14 8 32 18 SW 1008,3 24 0,0
17.11.2017 17:00:00 7,5 3,5 14 8 40 21 SW 1008,8 27 0,0
17.11.2017 16:00:00 7,6 3,5 14 8 36 19 WSW 1009,2 25 0,0
17.11.2017 15:00:00 7,4 3,3 14 8 36 19 WSW 1009,3 26 0,0
17.11.2017 14:00:00 7,5 2,8 11 6 32 18 SW 1009,6 30 0,0
17.11.2017 13:00:00 7,1 2,2 14 8 29 16 WSW 1010,3 30 0,0
17.11.2017 12:00:00 6,2 1,7 11 6 32 18 SW 1010,5 40 0,0
17.11.2017 11:00:00 5,6 1,5 14 8 29 16 WSW 1010,9 45 0,0
17.11.2017 10:00:00 4,8 1,6 11 6 22 12 W 1010,7 40 0,0
17.11.2017 09:00:00 4,2 1,9 11 6 25 14 SW 1010,4 35 0,0
17.11.2017 08:00:00 3,9 2,3 11 6 25 14 W 1009,8 35 0,0
17.11.2017 07:00:00 4,0 2,4 11 6 29 16 WSW 1009,0 30 0,0
17.11.2017 06:00:00 4,2 2,5 11 6 29 16 WSW 1008,7 35 0,0
17.11.2017 05:00:00 4,1 2,8 11 6 29 16 WSW 1008,2 35 0,0
17.11.2017 04:00:00 4,1 3,1 11 6 22 12 WSW 1007,5 35 0,0
17.11.2017 03:00:00 4,5 3,6 11 6 22 12 SW 1007,6 45 0,0
17.11.2017 02:00:00 5,2 4,5 11 6 32 18 WSW 1007,2 45 0,0
17.11.2017 01:00:00 6,3 6,0 11 6 29 16 SW 1006,6 45 0,0
17.11.2017 00:00:00 6,6 6,6 14 8 29 16 SW 1006,6 13 1,0
16.11.2017 23:00:00 5,5 5,5 4 2 14 8 S 1006,5 13 0,1
16.11.2017 22:00:00 4,9 4,9 4 2 18 10 SSE 1008,3 5 0,4
16.11.2017 21:00:00 4,4 4,4 7 4 18 10 S 1009,6 8 0,1
16.11.2017 20:00:00 3,6 3,6 7 4 18 10 S 1010,6 4,5 0,2
16.11.2017 19:00:00 2,8 2,8 4 2 14 8 SE 1012,2 23 0,0
16.11.2017 18:00:00 2,5 2,5 4 2 14 8 SSE 1013,5 30 0,0
16.11.2017 17:00:00 2,0 2,0 4 2 11 6 SSE 1014,8 10 0,1
16.11.2017 16:00:00 1,8 1,8 4 2 11 6 S 1016,2 21 0,0
16.11.2017 15:00:00 2,2 2,2 4 2 14 8 S 1017,4 14 0,0
16.11.2017 14:00:00 2,7 2,7 7 4 14 8 S 1018,0 13 0,0
16.11.2017 13:00:00 3,2 3,2 7 4 18 10 SSW 1018,6 20 0,0
16.11.2017 12:00:00 2,9 2,9 7 4 18 10 SSW 1019,0 17 0,0
16.11.2017 11:00:00 1,3 1,3 4 2 14 8 SSW 1019,6 13 0,0
16.11.2017 10:00:00 -1,8 -1,8 4 2 7 4 SSW 1019,7 17 0,0
16.11.2017 09:00:00 -2,5 -2,5 0 0 4 2 N 1020,0 19 0,0
16.11.2017 08:00:00 -3,0 -3,0 0 0 4 2 N 1020,2 20 0,0
16.11.2017 07:00:00 -2,8 -2,8 0 0 4 2 N 1019,9 18 0,0
16.11.2017 06:00:00 -2,3 -2,3 0 0 4 2 N 1020,0 12 0,0
16.11.2017 05:00:00 -2,7 -2,7 0 0 7 4 N 1020,1 20 0,0
16.11.2017 04:00:00 -2,0 -2,0 0 0 4 2 N 1019,9 10 0,0
16.11.2017 03:00:00 -1,7 -1,7 0 0 7 4 N 1019,9 15 0,0
16.11.2017 02:00:00 1,3 1,2 4 2 7 4 SSW 1019,7 27 0,0
16.11.2017 01:00:00 1,9 1,6 4 2 11 6 W 1019,4 35 0,0
16.11.2017 00:00:00 2,2 1,6 4 2 14 8 W 1019,1 40 0,0
15.11.2017 23:00:00 2,2 2,1 7 4 11 6 WSW 1018,4 45 0,0
15.11.2017 22:00:00 1,5 1,4 4 2 11 6 WSW 1018,1 45 0,0
15.11.2017 21:00:00 0,6 0,5 4 2 11 6 SW 1017,8 45 0,0
15.11.2017 20:00:00 0,7 -0,2 0 0 11 6 N 1017,2 40 0,0
15.11.2017 19:00:00 2,6 0,8 4 2 14 8 SW 1016,5 40 0,0
15.11.2017 18:00:00 3,6 1,3 4 2 14 8 W 1015,9 50 0,0
15.11.2017 17:00:00 3,6 1,8 4 2 11 6 WSW 1015,4 45 0,0
15.11.2017 16:00:00 4,8 2,0 4 2 22 12 W 1014,8 50 0,0
15.11.2017 15:00:00 6,2 3,2 7 4 22 12 W 1013,8 50 0,0
15.11.2017 14:00:00 7,0 4,5 11 6 25 14 W 1012,9 45 0,0
15.11.2017 13:00:00 6,9 5,7 7 4 29 16 W 1012,2 40 0,0
15.11.2017 12:00:00 6,4 6,0 11 6 29 16 W 1011,5 35 0,0
15.11.2017 11:00:00 - - - - - - - - - -
15.11.2017 10:00:00 4,5 4,5 7 4 18 10 SW 1011,5 20 0,0
15.11.2017 09:00:00 3,6 3,6 7 4 18 10 SW 1011,7 20 0,0
15.11.2017 08:00:00 0,4 0,4 7 4 14 8 SSW 1012,0 1,7 0,0
15.11.2017 07:00:00 0,4 0,4 7 4 14 8 S 1012,1 7 0,0
15.11.2017 06:00:00 -0,1 -0,1 7 4 14 8 SSW 1012,4 15 0,0
15.11.2017 05:00:00 -1,1 -1,1 0 0 7 4 N 1012,4 1,0 0,0
15.11.2017 04:00:00 -1,0 -1,0 4 2 7 4 SSW 1012,7 0,8 0,0
15.11.2017 03:00:00 -1,0 -1,0 0 0 7 4 N 1012,7 12 0,0
15.11.2017 02:00:00 -0,5 -0,5 0 0 7 4 N 1012,4 16 0,0
15.11.2017 01:00:00 0,8 0,8 0 0 14 8 N 1012,4 10 0,0
15.11.2017 00:00:00 2,0 2,0 7 4 14 8 W 1012,2 50 0,0
14.11.2017 23:00:00 2,3 2,2 4 2 11 6 WNW 1011,3 45 0,0
14.11.2017 22:00:00 1,8 1,8 4 2 11 6 SW 1010,7 13 0,0
14.11.2017 21:00:00 0,9 0,9 4 2 11 6 S 1010,4 3,7 0,0
14.11.2017 20:00:00 1,2 1,2 4 2 7 4 SSW 1010,3 5 0,0
14.11.2017 19:00:00 0,7 0,7 4 2 7 4 SSW 1009,9 7 0,0
14.11.2017 18:00:00 0,7 0,7 4 2 7 4 S 1009,4 2,8 0,0
14.11.2017 17:00:00 0,6 0,5 4 2 7 4 S 1009,0 6 0,0
14.11.2017 16:00:00 0,4 0,4 0 0 7 4 N 1009,0 8 0,0
14.11.2017 15:00:00 0,6 0,6 4 2 11 6 S 1009,2 5 0,2
14.11.2017 14:00:00 0,5 0,5 4 2 11 6 SSW 1009,3 8 0,3
14.11.2017 13:00:00 0,2 0,2 0 0 14 8 N 1009,7 7 0,4
14.11.2017 12:00:00 0,0 0,0 4 2 7 4 SSW 1009,9 7 0,1
14.11.2017 11:00:00 -1,0 -1,0 4 2 11 6 SSW 1010,3 20 0,0
14.11.2017 10:00:00 -1,9 -1,9 4 2 7 4 S 1010,5 45 0,0
14.11.2017 09:00:00 -2,9 -2,9 4 2 7 4 SSE 1011,3 45 0,0
14.11.2017 08:00:00 -5,2 -5,2 0 0 7 4 N 1011,6 50 0,0
14.11.2017 07:00:00 -7,1 -7,2 0 0 4 2 N 1011,9 50 0,0
14.11.2017 06:00:00 -7,7 -8,0 0 0 0 0 N 1012,4 50 0,0
14.11.2017 05:00:00 -7,5 -7,6 0 0 0 0 N 1012,8 50 0,0
14.11.2017 04:00:00 -7,3 -7,4 0 0 4 2 N 1012,7 45 0,0
14.11.2017 03:00:00 -7,3 -7,4 0 0 4 2 N 1013,0 50 0,0
14.11.2017 02:00:00 -7,0 -7,3 4 2 4 2 SW 1013,1 50 0,0
14.11.2017 01:00:00 -6,7 -6,8 0 0 4 2 N 1013,1 50 0,0
14.11.2017 00:00:00 -6,3 -6,3 0 0 4 2 N 1013,1 50 0,0
13.11.2017 23:00:00 -5,7 -5,7 0 0 4 2 N 1012,8 50 0,0
13.11.2017 22:00:00 -5,3 -5,3 4 2 7 4 SW 1013,1 50 0,0
13.11.2017 21:00:00 -4,2 -4,2 4 2 7 4 W 1012,9 50 0,0
13.11.2017 20:00:00 -3,9 -3,9 4 2 7 4 W 1012,8 50 0,0

tt = Température de l'air
td = dewpoint
ff = Vitesse du vent
fx = gusts
dd = Direction du vent
ppp = reduced air pressure
vv = visibility
rr = Quantités de précipitations

stations d'obs. à proximité